Time,TemperatureF,DewpointF,PressureIn,WindDirection,WindDirectionDegrees,WindSpeedMPH,WindSpeedGustMPH,Humidity,HourlyPrecipIn,Conditions,Clouds,dailyrainin,SoftwareType,DateUTC
2015-09-01 00:02:00,68.0,55.8,29.97,SSW,213,0.0,0.0,65,0.00,,---,0.00,VWS V13.00,2015-08-31 22:02:00,
2015-09-01 00:12:00,67.8,56.1,29.97,SSW,213,0.0,0.0,66,0.00,,---,0.00,VWS V13.00,2015-08-31 22:12:00,
2015-09-01 00:17:00,67.8,56.1,29.97,SSW,213,0.0,0.0,66,0.00,,---,0.00,VWS V13.00,2015-08-31 22:17:00,
2015-09-01 00:22:00,67.8,56.5,29.97,SSW,213,0.0,0.0,67,0.00,,---,0.00,VWS V13.00,2015-08-31 22:22:00,
2015-09-01 00:32:00,68.0,56.2,29.97,SSW,213,0.0,0.0,66,0.00,,---,0.00,VWS V13.00,2015-08-31 22:32:00,
2015-09-01 00:42:00,67.8,56.5,29.97,SSW,213,0.0,0.0,67,0.00,,---,0.00,VWS V13.00,2015-08-31 22:42:00,
2015-09-01 00:47:00,67.8,56.5,29.97,SSW,213,0.0,0.0,67,0.00,,---,0.00,VWS V13.00,2015-08-31 22:47:00,
2015-09-01 00:57:00,67.5,55.7,29.97,SSW,213,0.0,0.0,66,0.00,,---,0.00,VWS V13.00,2015-08-31 22:57:00,
2015-09-01 01:07:00,67.5,55.7,29.97,SSW,213,0.0,0.0,66,0.00,,---,0.00,VWS V13.00,2015-08-31 23:07:00,
2015-09-01 01:12:00,67.5,55.7,29.97,SSW,213,0.0,0.0,66,0.00,,---,0.00,VWS V13.00,2015-08-31 23:12:00,
2015-09-01 01:17:00,67.5,55.7,29.97,SSW,213,0.0,0.0,66,0.00,,---,0.00,VWS V13.00,2015-08-31 23:17:00,
2015-09-01 01:22:00,67.5,55.7,29.97,SSW,213,0.0,0.0,66,0.00,,---,0.00,VWS V13.00,2015-08-31 23:22:00,
2015-09-01 01:32:00,67.5,55.7,29.97,SSW,213,0.0,0.0,66,0.00,,---,0.00,VWS V13.00,2015-08-31 23:32:00,
2015-09-01 01:42:00,67.3,55.5,29.97,SSW,213,0.0,0.0,66,0.00,,---,0.00,VWS V13.00,2015-08-31 23:42:00,
2015-09-01 01:52:00,67.3,56.0,29.97,SSW,213,0.0,0.0,67,0.00,,---,0.00,VWS V13.00,2015-08-31 23:52:00,
2015-09-01 02:02:00,67.1,55.8,29.97,SSW,213,0.0,0.0,67,0.00,,---,0.00,VWS V13.00,2015-09-01 00:02:00,
2015-09-01 02:07:00,67.1,55.8,29.97,SSW,213,0.0,0.0,67,0.00,,---,0.00,VWS V13.00,2015-09-01 00:07:00,
2015-09-01 02:17:00,66.9,56.0,29.94,NW,318,0.0,0.0,68,0.00,,---,0.00,VWS V13.00,2015-09-01 00:17:00,
2015-09-01 02:27:00,66.9,56.0,29.94,NW,318,0.0,0.0,68,0.00,,---,0.00,VWS V13.00,2015-09-01 00:27:00,
2015-09-01 02:32:00,66.9,56.0,29.94,NW,318,0.0,0.0,68,0.00,,---,0.00,VWS V13.00,2015-09-01 00:32:00,
2015-09-01 02:42:00,66.9,56.4,29.94,NW,318,0.0,0.0,69,0.00,,---,0.00,VWS V13.00,2015-09-01 00:42:00,
2015-09-01 02:47:00,66.9,56.4,29.94,NW,318,0.0,0.0,69,0.00,,---,0.00,VWS V13.00,2015-09-01 00:47:00,
2015-09-01 02:52:00,67.1,56.6,29.94,NW,318,0.0,0.0,69,0.00,,---,0.00,VWS V13.00,2015-09-01 00:52:00,
2015-09-01 03:02:00,66.9,56.8,29.94,NW,318,0.0,0.0,70,0.00,,---,0.00,VWS V13.00,2015-09-01 01:02:00,
2015-09-01 03:07:00,66.9,56.8,29.94,NW,318,0.0,0.0,70,0.00,,---,0.00,VWS V13.00,2015-09-01 01:07:00,
2015-09-01 03:17:00,66.9,56.8,29.94,NW,318,0.0,0.0,70,0.00,,---,0.00,VWS V13.00,2015-09-01 01:17:00,
2015-09-01 03:27:00,66.7,57.0,29.94,NW,318,0.0,0.0,71,0.00,,---,0.00,VWS V13.00,2015-09-01 01:27:00,
2015-09-01 03:32:00,66.7,57.0,29.94,NW,318,0.0,0.0,71,0.00,,---,0.00,VWS V13.00,2015-09-01 01:32:00,
2015-09-01 03:42:00,66.9,57.6,29.94,NNW,339,0.0,0.0,72,0.00,,---,0.00,VWS V13.00,2015-09-01 01:42:00,
2015-09-01 03:47:00,67.1,58.2,29.94,NNW,339,0.0,0.0,73,0.00,,---,0.00,VWS V13.00,2015-09-01 01:47:00,
2015-09-01 03:52:00,67.1,58.2,29.94,NNW,339,0.0,0.0,73,0.00,,---,0.00,VWS V13.00,2015-09-01 01:52:00,
2015-09-01 04:02:00,66.7,58.2,29.94,NNW,339,0.0,0.0,74,0.00,,---,0.00,VWS V13.00,2015-09-01 02:02:00,
2015-09-01 04:13:00,66.7,58.6,29.94,North,360,0.0,0.0,75,0.00,,---,0.00,VWS V13.00,2015-09-01 02:13:00,
2015-09-01 04:23:00,66.6,58.8,29.94,North,360,0.0,0.0,76,0.00,,---,0.00,VWS V13.00,2015-09-01 02:23:00,
2015-09-01 04:32:00,66.6,58.8,29.94,North,354,0.0,0.0,76,0.00,,---,0.00,VWS V13.00,2015-09-01 02:32:00,
2015-09-01 04:42:00,66.6,59.1,29.94,North,354,0.0,0.0,77,0.00,,---,0.00,VWS V13.00,2015-09-01 02:42:00,
2015-09-01 04:52:00,66.6,59.5,29.94,North,354,0.0,0.0,78,0.00,,---,0.00,VWS V13.00,2015-09-01 02:52:00,
2015-09-01 05:02:00,66.4,59.3,29.94,North,354,0.0,0.0,78,0.00,,---,0.00,VWS V13.00,2015-09-01 03:02:00,
2015-09-01 05:12:00,66.4,59.7,29.94,North,354,0.0,0.0,79,0.00,,---,0.00,VWS V13.00,2015-09-01 03:12:00,
2015-09-01 05:17:00,66.4,59.7,29.94,North,354,0.0,0.0,79,0.00,,---,0.00,VWS V13.00,2015-09-01 03:17:00,
2015-09-01 05:27:00,66.2,59.9,29.94,North,354,0.0,0.0,80,0.00,,---,0.00,VWS V13.00,2015-09-01 03:27:00,
2015-09-01 05:37:00,66.2,59.9,29.94,NNW,348,0.0,0.0,80,0.00,,---,0.00,VWS V13.00,2015-09-01 03:37:00,
2015-09-01 05:47:00,66.0,60.0,29.94,NNW,347,0.0,0.0,81,0.00,,---,0.00,VWS V13.00,2015-09-01 03:47:00,
2015-09-01 05:52:00,65.8,59.8,29.94,NNW,347,0.0,0.0,81,0.00,,---,0.00,VWS V13.00,2015-09-01 03:52:00,
2015-09-01 05:57:00,65.7,59.7,29.94,NNW,348,0.0,0.0,81,0.00,,---,0.00,VWS V13.00,2015-09-01 03:57:00,
2015-09-01 06:02:00,65.7,59.7,29.94,NNW,348,0.0,0.0,81,0.00,,---,0.00,VWS V13.00,2015-09-01 04:02:00,
2015-09-01 06:12:00,65.3,59.7,29.94,NNW,332,0.0,0.0,82,0.00,,---,0.00,VWS V13.00,2015-09-01 04:12:00,
2015-09-01 06:22:00,65.1,59.5,29.94,NNW,332,0.0,0.0,82,0.00,,---,0.00,VWS V13.00,2015-09-01 04:22:00,
2015-09-01 06:32:00,64.8,59.1,29.94,NNW,332,0.0,0.0,82,0.00,,---,0.00,VWS V13.00,2015-09-01 04:32:00,
2015-09-01 06:37:00,64.8,59.1,29.94,NNW,332,0.0,0.0,82,0.00,,---,0.00,VWS V13.00,2015-09-01 04:37:00,
2015-09-01 06:47:00,65.1,59.5,29.94,NNW,332,0.0,0.0,82,0.00,,---,0.00,VWS V13.00,2015-09-01 04:47:00,
2015-09-01 06:57:00,65.3,59.7,29.94,NNW,332,0.0,0.0,82,0.00,,---,0.00,VWS V13.00,2015-09-01 04:57:00,
2015-09-01 07:02:00,65.3,59.7,29.94,NNW,332,0.0,0.0,82,0.00,,---,0.00,VWS V13.00,2015-09-01 05:02:00,
2015-09-01 07:07:00,65.5,59.8,29.94,NNW,332,0.0,0.0,82,0.00,,---,0.00,VWS V13.00,2015-09-01 05:07:00,
2015-09-01 07:12:00,65.7,59.7,29.94,NNW,332,0.0,0.0,81,0.00,,---,0.00,VWS V13.00,2015-09-01 05:12:00,
2015-09-01 07:22:00,66.0,60.0,29.94,NNW,332,0.0,0.0,81,0.00,,---,0.00,VWS V13.00,2015-09-01 05:22:00,
2015-09-01 07:27:00,66.4,60.4,29.94,NNW,332,0.0,0.0,81,0.00,,---,0.00,VWS V13.00,2015-09-01 05:27:00,
2015-09-01 07:32:00,66.4,60.4,29.94,NNW,332,0.0,0.0,81,0.00,,---,0.00,VWS V13.00,2015-09-01 05:32:00,
2015-09-01 07:42:00,66.7,60.7,29.94,NNW,332,0.0,0.0,81,0.00,,---,0.00,VWS V13.00,2015-09-01 05:42:00,
2015-09-01 07:47:00,67.1,61.1,29.94,NNW,332,0.0,0.0,81,0.00,,---,0.00,VWS V13.00,2015-09-01 05:47:00,
2015-09-01 07:52:00,67.5,61.4,29.94,NNW,332,0.0,0.0,81,0.00,,---,0.00,VWS V13.00,2015-09-01 05:52:00,
2015-09-01 07:57:00,67.8,61.8,29.94,NE,35,0.0,0.0,81,0.00,,---,0.00,VWS V13.00,2015-09-01 05:57:00,
2015-09-01 08:07:00,69.4,63.4,29.94,NE,39,0.0,0.0,81,0.00,,---,0.00,VWS V13.00,2015-09-01 06:07:00,
2015-09-01 08:12:00,70.2,64.1,29.94,NE,39,0.0,0.0,81,0.00,,---,0.00,VWS V13.00,2015-09-01 06:12:00,
2015-09-01 08:22:00,72.1,66.0,29.94,East,99,0.0,2.2,81,0.00,,---,0.00,VWS V13.00,2015-09-01 06:22:00,
2015-09-01 08:32:00,73.4,66.5,29.94,East,99,0.0,0.0,79,0.00,,---,0.00,VWS V13.00,2015-09-01 06:32:00,
2015-09-01 08:42:00,74.8,67.2,29.94,East,99,0.0,0.0,77,0.00,,---,0.00,VWS V13.00,2015-09-01 06:42:00,
2015-09-01 08:47:00,75.7,66.9,29.94,East,99,0.0,0.0,74,0.00,,---,0.00,VWS V13.00,2015-09-01 06:47:00,
2015-09-01 08:57:00,77.2,66.2,29.94,East,101,0.0,0.0,69,0.00,,---,0.00,VWS V13.00,2015-09-01 06:57:00,
2015-09-01 09:02:00,78.1,65.8,29.94,East,101,0.0,0.0,66,0.00,,---,0.00,VWS V13.00,2015-09-01 07:02:00,
2015-09-01 09:07:00,79.0,65.3,29.94,ESE,105,0.0,0.0,63,0.00,,---,0.00,VWS V13.00,2015-09-01 07:07:00,
2015-09-01 09:12:00,79.2,65.0,29.94,South,169,2.2,4.5,62,0.00,,---,0.00,VWS V13.00,2015-09-01 07:12:00,
2015-09-01 09:17:00,79.3,63.3,29.94,East,95,0.0,4.0,58,0.00,,---,0.00,VWS V13.00,2015-09-01 07:17:00,
2015-09-01 09:22:00,79.7,63.1,29.94,South,191,2.7,3.1,57,0.00,,---,0.00,VWS V13.00,2015-09-01 07:22:00,
2015-09-01 09:32:00,79.9,61.2,29.94,SSW,198,0.0,0.0,53,0.00,,---,0.00,VWS V13.00,2015-09-01 07:32:00,
2015-09-01 09:42:00,80.6,59.7,29.94,SSW,199,0.0,2.2,49,0.00,,---,0.00,VWS V13.00,2015-09-01 07:42:00,
2015-09-01 09:47:00,80.6,59.1,29.94,SW,227,0.0,0.0,48,0.00,,---,0.00,VWS V13.00,2015-09-01 07:47:00,
2015-09-01 09:57:00,80.8,57.5,29.94,West,275,0.0,2.7,45,0.00,,---,0.00,VWS V13.00,2015-09-01 07:57:00,
2015-09-01 10:07:00,81.3,57.3,29.94,SSW,202,2.7,4.5,44,0.00,,---,0.00,VWS V13.00,2015-09-01 08:07:00,
2015-09-01 10:17:00,81.7,57.0,29.94,SSW,192,3.1,5.4,43,0.00,,---,0.00,VWS V13.00,2015-09-01 08:17:00,
2015-09-01 10:27:00,81.7,55.7,29.94,SSW,208,2.2,4.0,41,0.00,,---,0.00,VWS V13.00,2015-09-01 08:27:00,
2015-09-01 10:32:00,82.2,55.5,29.94,SSW,204,3.1,3.6,40,0.00,,---,0.00,VWS V13.00,2015-09-01 08:32:00,
2015-09-01 10:37:00,82.8,55.3,29.94,South,187,3.6,4.5,39,0.00,,---,0.00,VWS V13.00,2015-09-01 08:37:00,
2015-09-01 10:42:00,83.1,55.6,29.94,South,190,3.6,4.0,39,0.00,,---,0.00,VWS V13.00,2015-09-01 08:42:00,